Location: Buenos Aires
(34.6076°S, 58.4371°W)
Time: 12:32:27
(UTC-03:00)

Envisat - Pass Details

Date: 01 July 2021
Orbit: 764 x 766 km, 98.2° (Epoch: 03 August)

Event Time Altitude Azimuth Distance (km) Brightness Sun altitude
Rises 06:18:31 0° 346° (NNW) 3,217 6.2 -20.6°
Reaches altitude 10° 06:21:07 10° 334° (NNW) 2,300 5.4 -20.1°
Enters shadow 06:24:02 24° 302° (WNW) 1,542 4.2 -19.5°
